| time (UTC) | temp C | wind direction | speed KPH | gust KPH | rain 1hr cm | rain 24hr cm | rain mn cm | humidity % | barometer mb |
| 20260505153107 | 12 | 285 | 0.0 | 0.0 | 0.00 | 0.00 | 0.00 | 82 | 1015.9 |
| 20260505152119 | 12 | 284 | 0.0 | 1.6 | 0.00 | 0.00 | 0.00 | 82 | 1015.9 |
| 20260505151125 | 12 | 286 | 0.0 | 0.0 | 0.00 | 0.00 | 0.00 | 83 | 1015.9 |
| 20260505150118 | 12 | 285 | 0.0 | 1.6 | 0.00 | 0.00 | 0.00 | 83 | 1015.9 |
| 20260505123336 | 12 | 278 | 0.0 | 0.0 | 0.00 | 0.00 | 0.00 | 84 | 1014.9 |
| 20260505122320 | 12 | 278 | 0.0 | 0.0 | 0.00 | 0.00 | 0.00 | 84 | 1014.9 |
| 20260505120213 | 12 | 291 | 0.0 | 3.2 | 0.00 | 0.00 | 0.00 | 84 | 1014.7 |
| 20260505115142 | 12 | 221 | 0.0 | 3.2 | 0.00 | 0.00 | 0.00 | 84 | 1014.7 |
| 20260505114147 | 12 | 197 | 0.0 | 0.0 | 0.00 | 0.00 | 0.00 | 84 | 1014.8 |
| 20260505113151 | 12 | 145 | 0.0 | 3.2 | 0.00 | 0.00 | 0.00 | 84 | 1014.7 |
| 20260505111035 | 12 | 185 | 0.0 | 3.2 | 0.00 | 0.00 | 0.00 | 84 | 1014.5 |
| 20260505102019 | 12 | 168 | 0.0 | 0.0 | 0.00 | 0.00 | 0.00 | 84 | 1014.3 |
| 20260505101009 | 12 | 166 | 0.0 | 0.0 | 0.00 | 0.00 | 0.00 | 84 | 1014.3 |
| 20260505100026 | 12 | 194 | 0.0 | 0.0 | 0.00 | 0.00 | 0.00 | 84 | 1014.3 |
| 20260505093858 | 12 | 170 | 0.0 | 0.0 | 0.00 | 0.00 | 0.00 | 84 | 1014.2 |
| 20260505092842 | 12 | 148 | 0.0 | 0.0 | 0.00 | 0.00 | 0.00 | 85 | 1014.1 |
| 20260505091901 | 12 | 148 | 0.0 | 0.0 | 0.00 | 0.00 | 0.00 | 84 | 1014.0 |
| 20260505090853 | 12 | 193 | 0.0 | 1.6 | 0.00 | 0.00 | 0.00 | 84 | 1013.9 |
| 20260505085840 | 11 | 207 | 0.0 | 0.0 | 0.00 | 0.00 | 0.00 | 85 | 1014.0 |
| 20260505084843 | 11 | 207 | 0.0 | 1.6 | 0.00 | 0.00 | 0.00 | 84 | 1014.0 |
| 20260505082705 | 11 | 273 | 0.0 | 0.0 | 0.00 | 0.00 | 0.00 | 86 | 1013.8 |
| 20260505081709 | 11 | 285 | 0.0 | 0.0 | 0.00 | 0.00 | 0.00 | 86 | 1013.7 |
| 20260505080722 | 11 | 129 | 0.0 | 0.0 | 0.00 | 0.00 | 0.00 | 85 | 1013.8 |
| 20260505075729 | 11 | 221 | 0.0 | 4.8 | 0.00 | 0.00 | 0.00 | 85 | 1013.7 |
| 20260505074735 | 11 | 188 | 0.0 | 0.0 | 0.00 | 0.00 | 0.00 | 85 | 1013.7 |
| 20260505073749 | 11 | 188 | 0.0 | 0.0 | 0.00 | 0.00 | 0.00 | 86 | 1013.6 |
| 20260505071602 | 11 | 188 | 0.0 | 0.0 | 0.00 | 0.00 | 0.00 | 84 | 1013.5 |
| 20260505070626 | 11 | 198 | 0.0 | 0.0 | 0.00 | 0.00 | 0.00 | 84 | 1013.3 |
| 20260505065551 | 11 | 140 | 0.0 | 0.0 | 0.00 | 0.00 | 0.00 | 83 | 1013.2 |
| 20260505064556 | 12 | 284 | 0.0 | 0.0 | 0.00 | 0.00 | 0.00 | 83 | 1013.1 |
| 20260505063530 | 12 | 272 | 0.0 | 0.0 | 0.00 | 0.00 | 0.00 | 82 | 1013.2 |
| 20260505061424 | 12 | 156 | 0.0 | 6.4 | 0.00 | 0.00 | 0.00 | 81 | 1013.0 |
| 20260505060352 | 12 | 241 | 0.0 | 4.8 | 0.00 | 0.00 | 0.00 | 81 | 1013.0 |
| 20260505055402 | 12 | 278 | 0.0 | 4.8 | 0.00 | 0.00 | 0.00 | 81 | 1012.9 |
| 20260505054359 | 12 | 224 | 0.0 | 0.0 | 0.00 | 0.00 | 0.00 | 81 | 1013.0 |
| 20260505053331 | 12 | 288 | 0.0 | 0.0 | 0.00 | 0.00 | 0.00 | 80 | 1013.0 |
| 20260505052348 | 13 | 291 | 0.0 | 3.2 | 0.00 | 0.00 | 0.00 | 79 | 1012.9 |
| 20260505051349 | 13 | 285 | 0.0 | 3.2 | 0.00 | 0.00 | 0.00 | 79 | 1012.8 |
| 20260505041131 | 14 | 290 | 0.0 | 1.6 | 0.00 | 0.00 | 0.00 | 78 | 1012.0 |
| 20260505040133 | 15 | 288 | 0.0 | 1.6 | 0.00 | 0.00 | 0.00 | 77 | 1011.7 |
| 20260505035104 | 15 | 336 | 0.0 | 0.0 | 0.00 | 0.00 | 0.00 | 76 | 1011.7 |
| 20260505034049 | 15 | 257 | 0.0 | 0.0 | 0.00 | 0.00 | 0.00 | 75 | 1011.6 |
| 20260505033106 | 15 | 298 | 0.0 | 0.0 | 0.00 | 0.00 | 0.00 | 74 | 1011.3 |
| 20260505030923 | 16 | 205 | 0.0 | 0.0 | 0.00 | 0.00 | 0.00 | 71 | 1011.0 |
| 20260505025852 | 17 | 293 | 1.6 | 4.8 | 0.00 | 0.00 | 0.00 | 71 | 1010.8 |
| 20260505023703 | 18 | 294 | 1.6 | 8.0 | 0.00 | 0.00 | 0.00 | 68 | 1010.4 |
| 20260505022713 | 18 | 280 | 1.6 | 6.4 | 0.00 | 0.00 | 0.00 | 66 | 1010.4 |
| 20260505021715 | 20 | 285 | 1.6 | 4.8 | 0.00 | 0.00 | 0.00 | 65 | 1010.3 |
| 20260505015607 | 21 | 276 | 1.6 | 4.8 | 0.00 | 0.00 | 0.00 | 64 | 1010.3 |
| 20260505014615 | 21 | 272 | 1.6 | 4.8 | 0.00 | 0.00 | 0.00 | 63 | 1010.2 |
| 20260505013639 | 21 | 199 | 0.0 | 6.4 | 0.00 | 0.00 | 0.00 | 62 | 1010.2 |
| 20260505012646 | 22 | 284 | 1.6 | 6.4 | 0.00 | 0.00 | 0.00 | 60 | 1010.3 |
| 20260505011702 | 22 | 202 | 0.0 | 4.8 | 0.00 | 0.00 | 0.00 | 58 | 1010.3 |
| 20260505005506 | 23 | 287 | 1.6 | 4.8 | 0.00 | 0.00 | 0.00 | 57 | 1010.4 |
| 20260505004437 | 22 | 271 | 1.6 | 4.8 | 0.00 | 0.00 | 0.00 | 58 | 1010.4 |
| 20260505003449 | 22 | 240 | 0.0 | 8.0 | 0.00 | 0.00 | 0.00 | 59 | 1010.4 |
| 20260505002503 | 22 | 205 | 1.6 | 8.0 | 0.00 | 0.00 | 0.00 | 60 | 1010.4 |
| 20260505001521 | 23 | 300 | 1.6 | 8.0 | 0.00 | 0.00 | 0.00 | 59 | 1010.4 |
| 20260505000533 | 22 | 200 | 3.2 | 12.9 | 0.00 | 0.00 | 0.00 | 58 | 1010.5 |
| 20260504234343 | 23 | 197 | 0.0 | 9.7 | 0.00 | 0.00 | 0.00 | 58 | 1010.7 |
| 20260504233317 | 22 | 166 | 1.6 | 9.7 | 0.00 | 0.00 | 0.00 | 58 | 1010.8 |
| 20260504232314 | 22 | 294 | 1.6 | 9.7 | 0.00 | 0.00 | 0.00 | 59 | 1010.9 |
| 20260504231259 | 22 | 224 | 1.6 | 9.7 | 0.00 | 0.00 | 0.00 | 59 | 1011.0 |
| 20260504230252 | 22 | 283 | 1.6 | 11.3 | 0.00 | 0.00 | 0.00 | 57 | 1011.1 |
| 20260504225227 | 22 | 197 | 3.2 | 11.3 | 0.00 | 0.00 | 0.00 | 59 | 1011.1 |
| 20260504224206 | 22 | 240 | 1.6 | 11.3 | 0.00 | 0.00 | 0.00 | 59 | 1011.3 |
| 20260504223143 | 22 | 275 | 3.2 | 12.9 | 0.00 | 0.00 | 0.00 | 59 | 1011.4 |
| 20260504222149 | 22 | 159 | 1.6 | 12.9 | 0.00 | 0.00 | 0.00 | 59 | 1011.5 |
| 20260504221148 | 22 | 207 | 3.2 | 9.7 | 0.00 | 0.00 | 0.00 | 59 | 1011.5 |
| 20260504220205 | 22 | 238 | 3.2 | 9.7 | 0.00 | 0.00 | 0.00 | 58 | 1011.7 |
| 20260504215207 | 22 | 147 | 1.6 | 9.7 | 0.00 | 0.00 | 0.00 | 59 | 1011.8 |
| 20260504214155 | 21 | 173 | 1.6 | 9.7 | 0.00 | 0.00 | 0.00 | 59 | 1011.9 |
| 20260504213130 | 21 | 32 | 1.6 | 4.8 | 0.00 | 0.00 | 0.00 | 60 | 1012.0 |
| 20260504212130 | 21 | 154 | 1.6 | 8.0 | 0.00 | 0.00 | 0.00 | 61 | 1012.1 |
| 20260504211110 | 21 | 167 | 1.6 | 8.0 | 0.00 | 0.00 | 0.00 | 60 | 1012.3 |
| 20260504210125 | 21 | 169 | 1.6 | 8.0 | 0.00 | 0.00 | 0.00 | 63 | 1012.4 |
| 20260504205149 | 20 | 220 | 0.0 | 6.4 | 0.00 | 0.00 | 0.00 | 62 | 1012.5 |
| 20260504204148 | 20 | 225 | 1.6 | 6.4 | 0.00 | 0.00 | 0.00 | 62 | 1012.7 |
| 20260504203156 | 20 | 295 | 1.6 | 11.3 | 0.00 | 0.00 | 0.00 | 63 | 1012.8 |
| 20260504202152 | 19 | 122 | 3.2 | 11.3 | 0.00 | 0.00 | 0.00 | 65 | 1012.8 |
| 20260504200019 | 18 | 74 | 3.2 | 8.0 | 0.00 | 0.00 | 0.00 | 65 | 1012.9 |
| 20260504195009 | 18 | 162 | 1.6 | 9.7 | 0.00 | 0.00 | 0.00 | 67 | 1013.0 |
| 20260504193959 | 18 | 214 | 3.2 | 16.1 | 0.00 | 0.00 | 0.00 | 67 | 1013.0 |
| 20260504193016 | 17 | 201 | 4.8 | 16.1 | 0.00 | 0.00 | 0.00 | 70 | 1013.0 |
| 20260504192036 | 17 | 278 | 1.6 | 6.4 | 0.00 | 0.00 | 0.00 | 70 | 1013.1 |
| 20260504185908 | 16 | 164 | 1.6 | 12.9 | 0.00 | 0.00 | 0.00 | 73 | 1013.3 |
| 20260504184918 | 16 | 161 | 3.2 | 12.9 | 0.00 | 0.00 | 0.00 | 73 | 1013.4 |
| 20260504182656 | 15 | 132 | 4.8 | 11.3 | 0.00 | 0.00 | 0.00 | 76 | 1013.3 |
| 20260504180449 | 15 | 238 | 1.6 | 14.5 | 0.00 | 0.00 | 0.00 | 76 | 1013.3 |
| 20260504175424 | 15 | 235 | 3.2 | 8.0 | 0.00 | 0.00 | 0.00 | 76 | 1013.4 |
| 20260504174357 | 15 | 184 | 3.2 | 11.3 | 0.00 | 0.00 | 0.00 | 77 | 1013.4 |
| 20260504173324 | 15 | 190 | 4.8 | 11.3 | 0.00 | 0.00 | 0.00 | 77 | 1013.3 |
| 20260504172314 | 15 | 157 | 3.2 | 11.3 | 0.00 | 0.00 | 0.00 | 77 | 1013.3 |
| 20260504170243 | 15 | 157 | 1.6 | 8.0 | 0.00 | 0.00 | 0.00 | 77 | 1013.3 |
| 20260504160137 | 13 | 231 | 1.6 | 6.4 | 0.00 | 0.00 | 0.00 | 80 | 1013.3 |